Tracking 29892 objects as of 21-Nov-2024
HD Live streaming from Space Station
objects crossing your sky now

STARLINK-30836

Track STARLINK-30836 now!
10-day predictions
STARLINK-30836 is classified as:


NORAD ID: 58221
Int'l Code: 2023-170R
Perigee: 565.5 km
Apogee: 566.9 km
Inclination: 43.0 °
Period: 95.8 minutes
Semi major axis: 6937 km
RCS: Unknown
Launch date: November 3, 2023
Source: United States (US)
Launch site: AIR FORCE EASTERN TEST RANGE (AFETR)
Your satellite tracking list
Your tracking list is empty




NASA's NSSDC Master Catalog

Two Line Element Set (TLE):
1 58221U 23170R   24325.83589998  .00000049  00000-0  18661-4 0  9995
2 58221  43.0033 250.3595 0001007 263.1356  96.9372 15.02541575 59001
Source of the keplerian elements: AFSPC